Location: Hyderabad
(17.3833°N, 78.4667°E)
Time: 13:42:53
(UTC+05:30)

Daily predictions for brighter satellites

Satellite Brightness Start Highest point End
(mag) Time Altitude Azimuth Time Altitude Azimuth Time Altitude Azimuth
Cosmos 158 Rocket 4.1 17:53:10 10° N 17:58:19 55° ENE 18:03:20 10° SSE
SMAP 3.0 17:54:56 10° SSE 17:59:33 72° ENE 18:04:10 10° N
MSX 4.2 17:55:14 10° SE 18:00:39 44° ENE 18:06:04 10° N
SJ-7 4.5 17:57:43 10° SSE 18:01:51 66° ENE 18:06:01 10° N
Cosmos 1048 Rocket 4.4 18:00:06 10° NNW 18:05:25 76° WSW 18:10:47 10° S
Cosmos 921 Rocket 3.8 18:04:39 10° SSE 18:08:18 30° E 18:12:00 10° NE
CZ-4 R/B 4.4 18:06:36 10° SSE 18:10:40 64° ENE 18:14:45 10° N
NOSS 3-1 (A) 4.3 18:02:42 10° NNW 18:10:53 86° WSW 18:19:23 10° SSE
SL-24 DEB 4.2 18:07:28 10° N 18:12:10 74° E 18:16:48 10° S
Tiangong 1 3.9 18:14:12 10° NW 18:14:25 10° NW 18:14:38 10° NNW
SPOT 3 Rocket 3.8 18:09:40 10° S 18:14:52 75° WSW 18:20:02 10° NNW
Cosmos 2297 3.7 18:09:39 10° S 18:15:15 67° ESE 18:20:51 10° NNE
Nadezhda 3 Rocket 4.1 18:11:05 10° SSE 18:17:04 56° E 18:23:06 10° NNE
CORIOLIS 4.3 18:12:52 10° S 18:18:19 84° WSW 18:23:43 10° NNW
Okean 1 4.0 18:16:51 10° SSW 18:20:48 59° W 18:24:47 10° N
ATLAS 2AS CENTAUR R/B 3.5 18:16:04 10° N 18:22:46 31° ENE 18:28:58 10° ESE
SKYMED 2 4.2 18:20:06 10° N 18:24:21 60° WNW 18:28:36 10° SSW
Cosmos 1455 Rocket 3.0 18:21:36 10° N 18:26:01 79° E 18:30:27 10° S
Cosmos 1500 3.9 18:24:30 10° NNE 18:27:57 32° E 18:31:25 10° SSE
Hubble Space Telescope 1.1 18:24:36 10° NW 18:28:37 47° NNE 18:31:37 16° E
Meteor 1-19 Rocket 4.4 18:24:50 10° S 18:30:21 53° E 18:35:57 10° NNE
Cosmos 2278 Rocket 3.9 18:26:19 10° SW 18:31:16 32° WNW 18:36:15 10° N
Meteor 1-28 Rocket 3.1 18:27:52 10° NNE 18:31:40 87° E 18:35:26 10° S
Meteor 1-12 Rocket 4.3 18:26:05 10° N 18:31:54 70° E 18:37:48 10° SSE
MONITOR-E 4.3 18:28:55 10° S 18:32:05 78° W 18:35:15 10° NNW
IDEFIX/ARIANE 42P 3.7 18:27:23 10° S 18:32:23 48° W 18:37:23 10° NNW
SL-27 R/B 2.4 18:31:18 10° N 18:34:55 79° ENE 18:38:29 10° SSE
Cosmos 1371 Rocket 4.3 18:31:32 10° S 18:36:35 47° ESE 18:41:17 12° NNE
GPS 2-18 Rocket1 3.2 18:34:05 10° WNW 18:38:02 64° N 18:40:23 23° E
Cosmos 1346 Rocket 3.8 18:36:39 10° SSW 18:40:27 47° W 18:44:13 10° N
ATLAS 5 CENTAUR R/B 3.5 18:35:13 10° WSW 18:41:06 76° SSE 19:04:00 21° E
ATLAS 5 CENTAUR R/B 3.5 18:35:14 10° WSW 18:41:06 76° SSE 19:04:01 21° E
ATLAS 5 CENTAUR R/B 3.5 18:35:13 10° WSW 18:41:06 76° SSE 19:03:59 21° E
ATLAS 5 CENTAUR R/B 3.5 18:35:14 10° WSW 18:41:06 76° SSE 19:04:02 21° E
ATLAS 5 CENTAUR R/B 3.5 18:35:13 10° WSW 18:41:06 76° SSE 19:04:03 21° E
GPS 2-14 Rocket1 3.0 18:39:22 10° W 18:43:21 53° N 18:45:17 27° ENE
Meteor 1-13 Rocket 4.3 18:40:20 10° S 18:45:53 80° W 18:51:34 10° N
COSMOS 2406 4.3 18:42:17 10° NNW 18:47:44 47° WSW 18:53:12 10° S
Helios 1B rocket 3.3 18:48:02 27° E 18:48:26 28° E 18:51:58 10° SSE
GPS 2-15 Rocket1 3.1 18:49:06 10° W 18:53:48 68° N 18:55:42 34° ENE
SJ-6B 3.2 18:50:47 10° SE 18:54:01 36° E 18:54:01 36° E
Meteor 1-23 Rocket 4.2 18:55:56 10° S 19:01:39 64° E 19:06:14 16° NNE
Cosmos 494 Rocket 4.1 18:58:57 10° NNW 19:04:12 79° WSW 19:09:27 10° S
Meteor 2-21 Rocket 4.3 19:00:50 10° N 19:06:59 76° E 19:13:05 10° S
NOAA 12 4.0 19:02:17 10° SSE 19:07:33 70° ENE 19:12:48 10° N
METEOR-M 4.0 19:05:11 10° SSE 19:10:25 61° ENE 19:15:40 10° N
Meteor 2-16 Rocket 4.3 19:06:14 10° N 19:12:15 66° E 19:18:17 10° SSE
Centaur AC-72 3.4 19:09:14 10° WSW 19:16:45 46° SSE 19:18:59 32° ESE
Meteor 2-4 Rocket 3.9 19:15:01 10° SSW 19:20:27 65° W 19:25:17 13° N
Palapa 6 Rocket 3.8 19:21:59 10° WNW 19:27:31 47° N 19:27:31 47° N
Cosmos 1535 Rocket 4.3 19:22:20 10° N 19:28:36 82° E 19:34:46 10° S
Cosmos 1934 Rocket 3.9 19:30:38 46° NNE 19:32:28 66° E 19:38:43 10° SSE
Cosmos 1241 Rocket 4.4 19:28:31 10° NNW 19:35:06 72° ENE 19:38:18 32° SE
ATLAS 3B CENTAUR R/B 3.6 19:22:15 10° WNW 19:36:14 40° NNW 19:37:56 35° NNE
GEOS 3 Rocket 3.9 19:39:13 54° NNW 19:39:13 54° NNW 19:43:09 10° NNW
Cosmos 2369 Rocket 3.4 19:34:20 10° S 19:37:17 29° SSE 19:37:17 29° SSE
GPS 2-17 Rocket1 3.7 19:35:38 10° W 19:39:11 49° WNW 19:39:11 49° WNW
Cosmos 1821 Rocket 4.5 19:48:57 10° NNW 19:54:52 56° W 20:00:49 10° S
Haruka 4.1 19:52:01 10° SW 19:53:53 33° SSW 19:53:53 33° SSW
Hubble Space Telescope 3.6 20:05:59 10° W 20:07:03 16° W 20:07:03 16° W
Delta 168 4.5 20:01:13 10° WNW 20:10:34 76° NW 20:10:34 76° NW
ATLAS 2AS CENTAUR R/B 4.2 20:06:48 10° NW 20:13:35 36° WSW 20:19:51 10° S
